User: anonymous   Login
Location: NJAA Observatory
(40.6819°N, 74.8979°W)
Time: 15:23:36
(UTC-05:00)
Language:

Cosmos 2082 - Orbit

View from above orbital plane
View from above orbital plane
View from above satellite
View from above satellite

Ground track
Ground track

The orbit data is extracted from the following two-line orbital elements,

1 20624U 90046A   16339.33145341  .00000352  00000-0  20913-3 0  9997
2 20624  71.0412 262.4013 0016220 318.2184  41.7699 14.14213629369644
Epoch (UTC): 04 December 2016 07:57:17
Eccentricity: 0.0016220
inclination: 71.0412°
perigee height: 833 km
apogee height: 857 km
right ascension of ascending node: 262.4013°
argument of perigee: 318.2184°
revolutions per day: 14.14213629
mean anomaly at epoch: 41.7699°
orbit number at epoch: 36964

The dashed part of the orbit path shows where the satellite is in the earth's shadow,  

DLR